Location: Llanfihangel-Ystrad
(52.1833°N, 4.1667°W)
Time: 11:24:04
(UTC+00:00)

SJ-7 - Pass Details

Date: 17 February 2020
Orbit: 555 x 604 km, 97.7° (Epoch: 09 April)

Event Time Altitude Azimuth Distance (km) Brightness Sun altitude
Rises 06:29:56 0° 12° (NNE) 2,873 8.1 -9.7°
Reaches altitude 10° 06:32:07 10° 11° (N) 1,965 7.2 -9.4°
Maximum altitude 06:36:23 75° 287° (WNW) 632 4.4 -8.7°
Drops below altitude 10° 06:40:36 10° 202° (SSW) 1,941 7.0 -8.1°
Sets 06:42:45 0° 201° (SSW) 2,834 7.8 -7.7°
